Carbondale, IL

3:34 PM CST on December 08, 2019 (GMT -0600)
Southern Illinois

Weather History for KMDH - November, 2019

Change the Weather History Date:

Thursday, November 14, 2019

  Actual Average Record
Temperature  
Mean Temperature 34 °F -  
Max Temperature 43 °F 55 °F 78 °F (1964)
Min Temperature 24 °F 32 °F 10 °F (1986)
Degree Days  
Heating Degree Days 32    
Moisture  
Dew Point 23 °F    
Average Humidity 66    
Maximum Humidity 91    
Minimum Humidity 47    
Precipitation  
Precipitation 0.00 in - - ()
Sea Level Pressure  
Sea Level Pressure 30.30 in    
Wind  
Wind Speed 6 mph (West)    
Max Wind Speed 9 mph    
Max Gust Speed -    
Visibility 10 miles    
Events      
Averages and records for this station are not official NWS values.
T = Trace of Precipitation, MM = Missing Value Source: NWS Daily Summary

Daily Weather History Graph

Daily Weather History Graph

Search for Another Location

Airport or City:

Astronomy

Nov. 14, 2019 Rise Set
Actual Time 6:35 AM CST 4:46 PM CST
Civil Twilight 6:07 AM CST 5:14 PM CST
Nautical Twilight 5:36 AM CST 5:46 PM CST
Astronomical Twilight 5:05 AM CST 6:17 PM CST
Moon 6:33 PM CST (11/14) 8:30 AM CST (11/14)
Length of Visible Light 11h 06m
Length of Day
10h 10m
Waning Gibbous, 95% of the Moon is Illuminated
Nov 14
Waning Gibbous
Nov 19
Last Quarter
Nov 26
New
Dec 4
First Quarter
Dec 11
Full

Hourly Weather History & Observations

Time (CST) Temp. Windchill Dew Point Humidity Pressure Visibility Wind Dir Wind Speed Gust Speed Precip Events Conditions
12:52 AM 30.9 °F 25.2 °F 19.9 °F 64% 30.18 in 10.0 mi SSW 5.8 mph - N/A   Scattered Clouds
1:52 AM 32.0 °F 24.8 °F 19.9 °F 61% 30.19 in 10.0 mi SSW 8.1 mph - N/A   Mostly Cloudy
2:52 AM 33.1 °F 25.5 °F 19.9 °F 59% 30.19 in 10.0 mi SSW 9.2 mph - N/A   Overcast
4:52 AM 27.0 °F 20.5 °F 19.9 °F 75% 30.21 in 10.0 mi South 5.8 mph - N/A   Clear
5:52 AM 26.1 °F 19.4 °F 19.9 °F 78% 30.22 in 10.0 mi South 5.8 mph - N/A   Clear
6:52 AM 26.1 °F 19.4 °F 19.9 °F 78% 30.24 in 10.0 mi South 5.8 mph - N/A   Clear
7:52 AM 32.0 °F 28.7 °F 21.9 °F 66% 30.26 in 10.0 mi SW 3.5 mph - N/A   Clear
8:52 AM 39.0 °F 34.8 °F 21.9 °F 50% 30.28 in 10.0 mi West 5.8 mph - N/A   Clear
9:52 AM 41.0 °F 35.2 °F 21.9 °F 47% 30.29 in 10.0 mi NNW 9.2 mph - N/A   Mostly Cloudy
10:52 AM 42.1 °F 37.7 °F 23.0 °F 47% 30.30 in 10.0 mi North 6.9 mph - N/A   Overcast
11:52 AM 42.1 °F 38.4 °F 24.1 °F 49% 30.30 in 10.0 mi North 5.8 mph - N/A   Overcast
12:52 PM 42.1 °F 37.7 °F 24.1 °F 49% 30.30 in 10.0 mi NW 6.9 mph - N/A   Overcast
1:52 PM 43.0 °F 39.5 °F 24.1 °F 47% 30.29 in 10.0 mi North 5.8 mph - N/A   Overcast
2:52 PM 43.0 °F 38.2 °F 24.1 °F 47% 30.30 in 10.0 mi North 8.1 mph - N/A   Overcast
3:52 PM 41.0 °F 35.2 °F 26.1 °F 55% 30.31 in 10.0 mi North 9.2 mph - N/A   Overcast
4:52 PM 37.9 °F - 26.1 °F 62% 30.34 in 10.0 mi Calm Calm - N/A   Overcast
5:52 PM 35.1 °F - 26.1 °F 70% 30.36 in 10.0 mi Calm Calm - N/A   Clear
6:52 PM 30.9 °F - 25.0 °F 79% 30.37 in 10.0 mi Calm Calm - N/A   Clear
7:52 PM 28.9 °F - 24.1 °F 82% 30.37 in 10.0 mi Calm Calm - N/A   Clear
8:52 PM 28.0 °F 21.7 °F 25.0 °F 88% 30.39 in 10.0 mi North 5.8 mph - N/A   Clear
9:52 PM 28.9 °F - 25.0 °F 85% 30.41 in 9.0 mi Calm Calm - N/A   Clear
10:52 PM 24.1 °F - 21.9 °F 91% 30.41 in 5.0 mi Calm Calm - N/A   Clear
11:52 PM 24.1 °F - 21.9 °F 91% 30.40 in 5.0 mi Calm Calm - N/A   Clear